sat.trackr.live / text

‹ back to catalog

STARLINK-35705

NORAD 67039 · 2025-294K

PAYLOAD ACTIVE UNKNOWN

§ Identity

Operator
Country
US
Launch date
2025-12-11
Launch site
AFETR
Launch vehicle
Mass (kg)
RCS (m²)

Purposes: comms

External: N2YO · Heavens-Above · Gunter

§ Orbital elements

Epoch: 2026-09-20T08:42:30.037824Z

Period
94.27 min
Inclination
43.0007°
Eccentricity
0.0001269
Mean motion
15.27584146 rev/d
Perigee alt
482.2 km
Apogee alt
483.9 km
Semi-major
6,861.2 km
B*
3.8468e-4
RAAN
18.5161°
Arg perigee
273.8498°
Mean anomaly
86.2208°
Rev number
4,457

§ Raw data

STARLINK-357051 67039U 25294K   26263.36284766  .00010340  00000+0  38468-3 0  99972 67039  43.0007  18.5161 0001269 273.8498  86.2208 15.27584146 44571

JSON: /api/v1/satellites/67039 · /tle

For live sub-satellite position, see the globe view (requires WebGL).

§ Visibility from observer

Set your observer location to see the next 7 days of passes ≥ 10°. The values pass through the URL so the page stays shareable.

No JS? Fill the form by hand. The geolocation button needs JavaScript.